• In Belarus
  • List of Countries
  • For 7 days
  • Water Temperature
  • Satellite Maps
  • Weather Map
  • Weather Widgets
  • user-avatar
    Login

    Hourly Weather Razgrad

    Today, 22 January, Monday

    Time Temperature Precipitation Wind Pressure Humidity
    00:00 +3°C° 1.1 mm 2 mps 732 mmHg 96%
    01:00 +3°C° 1.1 mm 2 mps 732 mmHg 97%
    02:00 +2°C° 1.1 mm 3 mps 731 mmHg 97%
    03:00 +1°C° 0.9 mm 3 mps 731 mmHg 96%
    04:00 0°C° 0.9 mm 4 mps 731 mmHg 95%
    05:00 0°C° 0.9 mm 5 mps 731 mmHg 95%
    06:00 0°C° 0.6 mm 5 mps 731 mmHg 95%
    07:00 -2°C° 0.6 mm 6 mps 732 mmHg 95%
    08:00 -2°C° 0.6 mm 6 mps 732 mmHg 95%
    09:00 -2°C° 0.7 mm 6 mps 732 mmHg 95%
    10:00 -2°C° 0.7 mm 6 mps 733 mmHg 95%
    11:00 -2°C° 0.7 mm 6 mps 734 mmHg 95%
    12:00 -3°C° 0.4 mm 6 mps 734 mmHg 94%
    13:00 -3°C° 0.4 mm 6 mps 734 mmHg 94%
    14:00 -3°C° 0.4 mm 6 mps 735 mmHg 94%
    15:00 -3°C° 0.3 mm 6 mps 735 mmHg 93%
    16:00 -3°C° 0.3 mm 6 mps 736 mmHg 93%
    17:00 -4°C° 0.3 mm 5 mps 737 mmHg 92%
    18:00 -4°C° 0.1 mm 5 mps 738 mmHg 92%
    19:00 -4°C° 0.1 mm 5 mps 738 mmHg 91%
    20:00 -4°C° 0.1 mm 4 mps 739 mmHg 91%
    21:00 -4°C° 0 mm 4 mps 740 mmHg 91%
    22:00 -4°C° 0 mm 4 mps 740 mmHg 91%
    23:00 -4°C° 0 mm 3 mps 741 mmHg 91%

    Tomorrow, 23 January, Tuesday

    Time Temperature Precipitation Wind Pressure Humidity
    00:00 -5°C° 0 mm 3 mps 741 mmHg 91%
    01:00 -5°C° 0 mm 3 mps 742 mmHg 92%
    02:00 -4°C° 0 mm 2 mps 742 mmHg 92%
    03:00 -4°C° 0 mm 2 mps 742 mmHg 93%
    04:00 -4°C° 0 mm 2 mps 743 mmHg 93%
    05:00 -4°C° 0 mm 2 mps 743 mmHg 94%
    06:00 -4°C° 0 mm 2 mps 744 mmHg 94%
    07:00 -2°C° 0 mm 1 mps 744 mmHg 93%
    08:00 -2°C° 0 mm 1 mps 745 mmHg 93%
    09:00 -3°C° 0 mm 2 mps 745 mmHg 90%
    10:00 -2°C° 0 mm 2 mps 746 mmHg 87%
    11:00 -2°C° 0 mm 2 mps 746 mmHg 84%
    12:00 -1°C° 0 mm 2 mps 746 mmHg 84%
    13:00 -1°C° 0 mm 2 mps 746 mmHg 83%
    14:00 -1°C° 0 mm 2 mps 747 mmHg 83%
    15:00 -1°C° 0 mm 2 mps 747 mmHg 84%
    16:00 -2°C° 0 mm 2 mps 747 mmHg 85%
    17:00 -2°C° 0 mm 2 mps 748 mmHg 86%
    18:00 -3°C° 0 mm 2 mps 749 mmHg 87%
    19:00 -3°C° 0 mm 2 mps 749 mmHg 88%
    20:00 -4°C° 0 mm 2 mps 750 mmHg 89%
    21:00 -4°C° 0 mm 2 mps 750 mmHg 87%
    22:00 -4°C° 0 mm 2 mps 751 mmHg 85%
    23:00 -4°C° 0 mm 2 mps 752 mmHg 83%

    Day after tomorrow, 24 January, Wednesday

    Time Temperature Precipitation Wind Pressure Humidity
    00:00 -5°C° 0 mm 2 mps 752 mmHg 82%
    01:00 -5°C° 0 mm 2 mps 752 mmHg 81%
    02:00 -6°C° 0 mm 2 mps 753 mmHg 80%
    03:00 -6°C° 0 mm 2 mps 753 mmHg 80%
    04:00 -7°C° 0 mm 2 mps 753 mmHg 80%
    05:00 -7°C° 0 mm 2 mps 753 mmHg 80%
    06:00 -7°C° 0 mm 2 mps 754 mmHg 79%
    07:00 -7°C° 0 mm 1 mps 754 mmHg 79%
    08:00 -7°C° 0 mm 1 mps 755 mmHg 79%
    09:00 -4°C° 0 mm 1 mps 755 mmHg 74%
    10:00 -5°C° 0 mm 2 mps 755 mmHg 69%
    11:00 -4°C° 0 mm 2 mps 756 mmHg 65%
    12:00 -4°C° 0 mm 2 mps 756 mmHg 64%
    13:00 -3°C° 0 mm 2 mps 755 mmHg 64%
    14:00 -2°C° 0 mm 2 mps 755 mmHg 64%
    15:00 -3°C° 0 mm 2 mps 755 mmHg 69%
    16:00 -2°C° 0 mm 1 mps 755 mmHg 73%
    17:00 -3°C° 0 mm 1 mps 755 mmHg 78%
    18:00 -3°C° 0 mm 1 mps 755 mmHg 79%
    19:00 -4°C° 0 mm 1 mps 755 mmHg 80%
    20:00 -4°C° 0 mm 1 mps 755 mmHg 80%
    21:00 -4°C° 0 mm 1 mps 755 mmHg 79%
    22:00 -4°C° 0 mm 1 mps 755 mmHg 78%
    23:00 -4°C° 0 mm 1 mps 755 mmHg 77%

    25 January, Thursday

    Time Temperature Precipitation Wind Pressure Humidity
    00:00 -4°C° 0 mm 1 mps 754 mmHg 76%
    01:00 -4°C° 0 mm 1 mps 754 mmHg 75%
    02:00 -4°C° 0 mm 1 mps 754 mmHg 74%
    03:00 -4°C° 0 mm 1 mps 753 mmHg 73%
    04:00 -4°C° 0 mm 1 mps 753 mmHg 73%
    05:00 -5°C° 0 mm 0 mps 753 mmHg 72%
    06:00 -5°C° 0 mm 0 mps 753 mmHg 71%
    07:00 -5°C° 0 mm 0 mps 753 mmHg 70%
    08:00 -5°C° 0 mm 0 mps 753 mmHg 70%
    09:00 -4°C° 0 mm 0 mps 753 mmHg 67%
    10:00 -2°C° 0 mm 0 mps 752 mmHg 64%
    11:00 -1°C° 0 mm 0 mps 752 mmHg 61%
    12:00 0°C° 0 mm 0 mps 752 mmHg 62%
    13:00 +2°C° 0 mm 1 mps 751 mmHg 62%
    14:00 +2°C° 0 mm 1 mps 751 mmHg 63%
    15:00 +1°C° 0 mm 1 mps 750 mmHg 68%
    16:00 0°C° 0 mm 1 mps 750 mmHg 73%
    17:00 -1°C° 0 mm 1 mps 750 mmHg 78%
    18:00 -1°C° 0 mm 1 mps 750 mmHg 80%
    19:00 -2°C° 0 mm 1 mps 750 mmHg 81%
    20:00 -2°C° 0 mm 1 mps 750 mmHg 83%
    21:00 -2°C° 0 mm 1 mps 750 mmHg 84%
    22:00 -3°C° 0 mm 1 mps 750 mmHg 84%
    23:00 -3°C° 0 mm 1 mps 750 mmHg 85%

    26 January, Friday

    Time Temperature Precipitation Wind Pressure Humidity
    00:00 -3°C° 0 mm 1 mps 750 mmHg 84%
    01:00 -3°C° 0 mm 1 mps 750 mmHg 83%
    02:00 -3°C° 0 mm 1 mps 750 mmHg 82%
    03:00 -4°C° 0 mm 1 mps 750 mmHg 80%
    04:00 -4°C° 0 mm 1 mps 750 mmHg 79%
    05:00 -4°C° 0 mm 1 mps 750 mmHg 77%
    06:00 -4°C° 0 mm 1 mps 750 mmHg 78%
    07:00 -4°C° 0 mm 1 mps 750 mmHg 79%
    08:00 -4°C° 0 mm 1 mps 750 mmHg 80%
    09:00 -2°C° 0 mm 1 mps 750 mmHg 78%
    10:00 -1°C° 0 mm 1 mps 750 mmHg 76%
    11:00 +1°C° 0 mm 1 mps 750 mmHg 73%
    12:00 +2°C° 0 mm 1 mps 750 mmHg 73%
    13:00 +2°C° 0 mm 1 mps 750 mmHg 72%
    14:00 +3°C° 0 mm 1 mps 750 mmHg 72%
    15:00 +2°C° 0 mm 1 mps 749 mmHg 75%
    16:00 +2°C° 0 mm 1 mps 749 mmHg 78%
    17:00 +1°C° 0 mm 1 mps 749 mmHg 82%
    18:00 0°C° 0 mm 1 mps 750 mmHg 83%
    19:00 0°C° 0 mm 1 mps 750 mmHg 85%
    20:00 -2°C° 0 mm 2 mps 750 mmHg 86%
    21:00 -2°C° 0 mm 2 mps 750 mmHg 86%
    22:00 -3°C° 0 mm 2 mps 750 mmHg 87%
    23:00 -3°C° 0 mm 2 mps 750 mmHg 87%

    27 January, Saturday

    Time Temperature Precipitation Wind Pressure Humidity
    00:00 -3°C° 0 mm 2 mps 750 mmHg 88%
    01:00 -1°C° 0 mm 1 mps 750 mmHg 88%
    02:00 -1°C° 0 mm 1 mps 750 mmHg 89%
    03:00 -1°C° 0 mm 1 mps 750 mmHg 89%
    04:00 -1°C° 0 mm 1 mps 750 mmHg 89%
    05:00 -1°C° 0 mm 1 mps 750 mmHg 89%
    06:00 -1°C° 0 mm 1 mps 750 mmHg 89%
    07:00 -1°C° 0 mm 1 mps 750 mmHg 89%
    08:00 -1°C° 0 mm 1 mps 750 mmHg 89%
    09:00 0°C° 0 mm 1 mps 750 mmHg 86%
    10:00 +2°C° 0 mm 1 mps 751 mmHg 82%
    11:00 +3°C° 0 mm 1 mps 751 mmHg 79%
    12:00 +4°C° 0 mm 1 mps 751 mmHg 77%
    13:00 +4°C° 0 mm 1 mps 751 mmHg 76%
    14:00 +4°C° 0 mm 0 mps 750 mmHg 74%
    15:00 +3°C° 0 mm 0 mps 750 mmHg 77%
    16:00 +2°C° 0 mm 0 mps 751 mmHg 81%
    17:00 +1°C° 0 mm 0 mps 751 mmHg 84%
    18:00 +1°C° 0 mm 0 mps 751 mmHg 85%
    19:00 +1°C° 0 mm 1 mps 751 mmHg 86%
    20:00 +1°C° 0 mm 1 mps 751 mmHg 87%
    21:00 +1°C° 0 mm 1 mps 751 mmHg 87%
    22:00 +1°C° 0 mm 1 mps 752 mmHg 88%
    23:00 +1°C° 0 mm 1 mps 752 mmHg 88%
    Show more